Powrót do katalogu

OPS 4682 DEB

AktywnyPO
NORAD 38360·DEBRIS·🇺🇸 United States

Wystrzelony Apr 3, 1965 z Vandenberg Space Force Base

Loading…

Następne Przeloty (najbliższe 24 godziny)

TLE

ŚwieżeSource: Space-Track

Epoka: Sep 12, 2026, 17:23 UTC

1 38360U 65027BM  26255.72442273 -.00000633  00000-0 -20999-2 0  9996
2 38360  90.2439   6.7501 0032526 358.9218   1.1829 13.00847888676201

Śledź OPS 4682 DEB w czasie rzeczywistym z AllMySat

Download on the App Store